period_start,C,m1,H,J0,J1,J2,J3,J4,J5,JA,JB,JC,JD,JJ,JK,JN,#
2014-12-26 00:03:11,0.17,1.06,0.00,23.01,27.67,30.65,4.74,27.02,1006.85,2030.73,3047.59,2999.94,3255.09,350.11,344.26,5.26,0000 0000 0000 0000 000000
2014-12-26 00:08:13,0.15,1.06,0.00,23.00,27.67,30.64,4.82,27.02,1006.85,2030.71,3045.71,2998.56,3253.59,350.43,344.77,5.29,0000 0000 0000 0000 000000
2014-12-26 00:13:14,0.20,1.07,0.00,23.01,27.67,30.62,4.75,27.14,1006.86,2030.76,3043.81,2997.05,3252.01,350.05,344.35,5.31,0000 0000 0000 0000 000000
2014-12-26 00:18:15,0.17,1.07,0.00,23.01,27.67,30.60,4.72,26.91,1006.87,2030.82,3041.94,2995.64,3250.49,350.04,344.44,5.34,0000 0000 0000 0000 000000
2014-12-26 00:23:16,0.14,1.08,0.00,23.02,27.67,30.62,4.79,26.95,1006.88,2030.69,3040.09,2994.20,3248.83,350.38,344.27,5.37,0000 0000 0000 0000 000000
2014-12-26 00:28:18,0.17,1.08,0.00,23.01,27.66,30.60,4.73,26.87,1006.91,2030.75,3038.23,2992.79,3247.36,350.36,344.71,5.40,0000 0000 0000 0000 000000
2014-12-26 00:33:19,0.13,1.09,0.00,23.01,27.65,30.59,4.76,26.95,1007.00,2030.55,3036.36,2991.38,3245.68,350.55,345.11,5.43,0000 0000 0000 0000 000000
2014-12-26 00:38:20,0.15,1.09,0.00,23.00,27.65,30.59,4.73,26.97,1007.17,2030.39,3034.46,2989.82,3244.12,350.30,344.80,5.46,0000 0000 0000 0000 000000
2014-12-26 00:43:22,0.15,1.09,0.00,23.00,27.65,30.62,4.78,27.09,1007.25,2030.18,3032.57,2988.41,3242.49,349.83,344.27,5.49,0000 0000 0000 0000 000000
2014-12-26 00:48:23,0.16,1.10,0.00,22.70,27.65,30.54,4.71,27.03,1007.24,2030.10,3030.75,2986.89,3240.82,349.91,344.68,5.52,0000 0000 0000 0000 000000
2014-12-26 00:53:24,0.17,1.10,0.00,22.00,27.63,30.05,4.79,26.90,1007.28,2030.20,3028.82,2985.54,3239.43,350.23,345.86,5.55,0000 0000 0000 0000 000000
2014-12-26 00:58:25,0.22,1.11,0.00,21.63,27.60,29.63,4.85,27.27,1007.14,2030.53,3026.96,2984.33,3237.93,350.56,346.52,5.58,0000 0000 0000 0000 000000
2014-12-26 01:03:27,0.20,1.12,0.00,21.30,27.55,29.22,4.79,27.12,1006.92,2030.91,3025.22,2983.13,3236.64,350.09,346.46,5.61,0000 0000 0000 0000 000000
2014-12-26 01:08:28,0.13,1.12,0.00,21.10,27.48,28.92,4.78,26.92,1006.93,2030.99,3023.58,2982.03,3235.45,349.98,346.58,5.64,0000 0000 0000 0000 000000
2014-12-26 01:13:30,0.12,1.13,0.00,21.29,27.39,28.58,4.78,27.23,1006.93,2031.03,3022.00,2981.01,3234.46,349.79,346.25,5.67,0000 0000 0000 0000 000000
2014-12-26 01:18:31,0.24,1.13,0.00,21.82,27.31,28.53,4.74,26.92,1006.93,2031.46,3020.57,2979.99,3233.38,349.89,345.97,5.70,0000 0000 0000 0000 000000
2014-12-26 01:23:33,0.17,1.14,0.00,22.07,27.23,28.85,4.71,27.17,1006.93,2031.97,3019.07,2978.92,3232.31,350.02,345.48,5.72,0000 0000 0000 0000 000000
2014-12-26 01:28:34,0.15,1.14,0.00,22.29,27.17,29.43,4.76,27.20,1007.03,2031.99,3017.52,2977.78,3230.98,349.74,344.81,5.75,0000 0000 0000 0000 000000
2014-12-26 01:33:36,0.16,1.15,0.00,22.56,27.11,29.55,4.71,27.02,1007.01,2031.99,3015.91,2976.57,3229.60,349.89,344.94,5.78,0000 0000 0000 0000 000000
2014-12-26 01:38:37,0.13,1.15,0.00,22.75,27.08,29.71,4.72,27.42,1007.09,2032.00,3014.31,2975.35,3228.22,350.03,344.65,5.81,0000 0000 0000 0000 000000
2014-12-26 01:43:38,0.18,1.16,0.00,22.93,27.05,29.70,4.71,27.06,1007.29,2032.03,3012.64,2973.92,3226.75,349.98,344.56,5.84,0000 0000 0000 0000 000000
2014-12-26 01:48:40,0.16,1.16,0.00,23.15,27.05,29.51,4.69,27.09,1007.33,2032.08,3010.92,2972.61,3225.33,350.10,344.40,5.87,0000 0000 0000 0000 000000
2014-12-26 01:53:41,0.15,1.17,0.00,23.31,27.05,29.50,4.69,27.06,1007.34,2032.04,3009.10,2971.16,3223.72,349.34,343.64,5.90,0000 0000 0000 0000 000000
2014-12-26 01:58:42,0.17,1.17,0.00,23.49,27.07,29.55,4.79,27.02,1007.36,2032.03,3007.38,2969.70,3222.19,349.99,344.10,5.93,0000 0000 0000 0000 000000
2014-12-26 02:03:44,0.17,1.18,0.00,23.49,27.10,29.63,4.78,27.18,1007.70,2032.02,3005.60,2968.23,3220.58,350.01,344.16,5.96,0000 0000 0000 0000 000000
2014-12-26 02:08:45,0.18,1.18,0.00,23.51,27.13,29.72,4.76,27.04,1007.83,2032.02,3003.76,2966.75,3219.00,350.22,344.52,5.99,0000 0000 0000 0000 000000
2014-12-26 02:13:46,0.17,1.19,0.00,23.57,27.17,29.81,4.71,26.83,1007.81,2032.01,3001.85,2965.25,3217.35,350.55,344.40,6.02,0000 0000 0000 0000 000000
2014-12-26 02:18:47,0.19,1.19,0.00,23.59,27.22,29.89,4.72,27.07,1007.75,2032.00,3000.06,2963.69,3215.68,349.87,343.72,6.05,0000 0000 0000 0000 000000
2014-12-26 02:23:48,0.19,1.20,0.00,23.62,27.26,29.98,4.75,26.96,1007.81,2032.00,2998.06,2962.08,3213.93,350.02,343.98,6.08,0000 0000 0000 0000 000000
2014-12-26 02:28:50,0.19,1.20,0.00,23.63,27.30,30.02,4.73,27.13,1007.83,2031.99,2995.96,2960.48,3212.18,350.33,344.22,6.11,0000 0000 0000 0000 000000
2014-12-26 02:33:51,0.19,1.21,0.00,23.65,27.34,30.09,4.67,26.96,1007.83,2031.95,2993.90,2958.83,3210.47,349.76,343.80,6.13,0000 0000 0000 0000 000000
2014-12-26 02:38:53,0.13,1.21,0.00,23.66,27.38,30.14,4.67,26.93,1007.84,2031.67,2991.84,2957.15,3208.65,349.59,343.51,6.16,0000 0000 0000 0000 000000
2014-12-26 02:43:54,0.13,1.22,0.00,23.65,27.42,30.17,4.69,26.87,1007.83,2031.18,2989.86,2955.59,3206.84,349.53,343.30,6.19,0000 0000 0000 0000 000000
2014-12-26 02:48:55,0.16,1.22,0.00,23.67,27.46,30.20,4.68,26.89,1007.83,2031.06,2987.96,2953.99,3205.24,349.73,343.70,6.22,0000 0000 0000 0000 000000
2014-12-26 02:53:57,0.17,1.23,0.00,23.66,27.49,30.22,4.71,27.10,1007.84,2031.00,2985.99,2952.42,3203.52,350.22,344.29,6.25,0000 0000 0000 0000 000000
2014-12-26 02:58:58,0.20,1.23,0.00,23.63,27.53,30.25,4.73,26.82,1007.85,2031.00,2984.08,2950.81,3201.77,350.09,344.05,6.28,0000 0000 0000 0000 000000
2014-12-26 03:03:59,0.17,1.24,0.00,23.67,27.56,30.27,4.71,27.08,1007.84,2030.99,2982.08,2949.26,3200.11,349.90,343.86,6.31,0000 0000 0000 0000 000000
2014-12-26 03:09:01,0.18,1.24,0.00,23.67,27.59,30.29,4.67,27.21,1007.98,2030.96,2980.12,2947.70,3198.48,350.06,343.92,6.34,0000 0000 0000 0000 000000
2014-12-26 03:14:02,0.15,1.25,0.00,23.69,27.61,30.29,4.64,27.17,1008.20,2030.80,2978.18,2946.04,3196.79,350.36,344.37,6.37,0000 0000 0000 0000 000000
2014-12-26 03:19:04,0.10,1.25,0.00,23.68,27.64,30.31,4.75,27.08,1008.31,2030.41,2976.32,2944.55,3195.15,350.15,344.20,6.40,0000 0000 0000 0000 000000
2014-12-26 03:24:05,0.13,1.26,0.00,23.70,27.66,30.33,4.69,26.94,1008.31,2030.09,2974.39,2943.14,3193.47,349.61,343.51,6.43,0000 0000 0000 0000 000000
2014-12-26 03:29:06,0.18,1.26,0.00,23.72,27.68,30.35,4.76,27.11,1008.31,2030.05,2972.56,2941.67,3191.86,349.74,343.87,6.46,0000 0000 0000 0000 000000
2014-12-26 03:34:08,0.16,1.27,0.00,23.69,27.70,30.37,4.69,26.99,1008.32,2030.01,2970.72,2940.21,3190.29,349.21,343.27,6.49,0000 0000 0000 0000 000000
2014-12-26 03:39:09,0.20,1.27,0.00,23.68,27.72,30.39,4.76,27.16,1008.34,2030.00,2968.75,2938.64,3188.68,350.22,344.23,6.52,0000 0000 0000 0000 000000
2014-12-26 03:44:10,0.16,1.28,0.00,23.65,27.74,30.42,4.74,26.97,1008.35,2030.00,2966.97,2937.21,3187.03,350.50,344.59,6.55,0000 0000 0000 0000 000000
2014-12-26 03:49:12,0.18,1.28,0.00,23.68,27.76,30.41,4.71,26.96,1008.53,2030.00,2965.16,2935.78,3185.44,349.74,343.94,6.57,0000 0000 0000 0000 000000
2014-12-26 03:54:13,0.16,1.29,0.00,23.73,27.77,30.44,4.77,27.02,1008.80,2029.98,2963.37,2934.34,3183.88,349.74,343.91,6.60,0000 0000 0000 0000 000000
2014-12-26 03:59:14,0.17,1.29,0.00,23.68,27.80,30.43,4.75,26.82,1008.82,2029.96,2961.55,2932.86,3182.40,349.86,344.14,6.63,0000 0000 0000 0000 000000
2014-12-26 04:04:15,0.16,1.30,0.00,23.69,27.81,30.47,4.73,26.98,1008.82,2029.94,2959.74,2931.48,3180.82,349.89,343.98,6.66,0000 0000 0000 0000 000000
2014-12-26 04:09:17,0.14,1.30,0.00,23.70,27.82,30.47,4.65,26.85,1008.90,2029.83,2957.96,2930.03,3179.28,349.75,344.14,6.69,0000 0000 0000 0000 000000
2014-12-26 04:14:18,0.10,1.30,0.00,23.66,27.84,30.48,4.77,26.98,1008.92,2029.37,2956.11,2928.54,3177.63,350.11,344.39,6.72,0000 0000 0000 0000 000000
2014-12-26 04:19:19,0.14,1.31,0.00,23.69,27.85,30.54,4.77,26.99,1009.01,2029.14,2954.29,2927.17,3176.20,350.57,344.85,6.75,0000 0000 0000 0000 000000
2014-12-26 04:24:20,0.17,1.31,0.00,23.71,27.87,30.48,4.73,27.02,1009.07,2029.07,2952.52,2925.70,3174.64,349.34,343.78,6.78,0000 0000 0000 0000 000000
2014-12-26 04:29:21,0.16,1.32,0.00,23.71,27.87,30.50,4.74,27.01,1009.18,2029.02,2950.68,2924.30,3173.09,349.81,344.16,6.81,0000 0000 0000 0000 000000
2014-12-26 04:34:23,0.18,1.32,0.00,23.73,27.90,30.54,4.74,26.91,1009.25,2029.01,2948.92,2922.85,3171.61,350.12,344.44,6.84,0000 0000 0000 0000 000000
2014-12-26 04:39:24,0.16,1.33,0.00,23.66,27.90,30.53,4.68,26.99,1009.11,2029.00,2947.19,2921.47,3169.99,349.46,343.83,6.87,0000 0000 0000 0000 000000
2014-12-26 04:44:25,0.15,1.33,0.00,23.65,27.91,30.54,4.76,27.06,1008.90,2029.00,2945.45,2920.11,3168.55,350.03,344.24,6.90,0000 0000 0000 0000 000000
2014-12-26 04:49:26,0.18,1.34,0.00,23.68,27.92,30.56,4.79,27.08,1008.85,2029.00,2943.71,2918.68,3167.08,350.07,344.22,6.93,0000 0000 0000 0000 000000
2014-12-26 04:54:28,0.16,1.34,0.00,23.67,27.92,30.58,4.76,27.18,1008.86,2029.00,2941.97,2917.32,3165.56,350.74,344.98,6.96,0000 0000 0000 0000 000000
2014-12-26 04:59:29,0.14,1.35,0.00,23.68,27.95,30.59,4.69,27.13,1008.85,2028.99,2940.46,2916.03,3164.19,349.62,343.87,6.98,0000 0000 0000 0000 000000
2014-12-26 05:04:30,0.19,1.35,0.00,23.66,27.95,30.58,4.72,27.28,1008.83,2028.98,2938.72,2914.66,3162.65,350.01,344.33,7.01,0000 0000 0000 0000 000000
2014-12-26 05:09:31,0.15,1.36,0.00,23.67,27.95,30.60,4.79,27.23,1008.96,2028.98,2936.93,2913.34,3161.14,349.84,344.07,7.04,0000 0000 0000 0000 000000
2014-12-26 05:14:32,0.18,1.36,0.00,23.67,27.97,30.60,4.77,27.20,1009.17,2028.97,2935.22,2911.90,3159.70,349.84,344.20,7.07,0000 0000 0000 0000 000000
2014-12-26 05:19:34,0.16,1.37,0.00,23.66,27.97,30.62,4.68,27.09,1009.16,2028.98,2933.43,2910.58,3158.37,349.73,344.15,7.10,0000 0000 0000 0000 000000
2014-12-26 05:24:35,0.16,1.37,0.00,23.66,27.97,30.62,4.73,27.01,1009.12,2028.95,2931.62,2909.24,3156.91,349.63,344.06,7.13,0000 0000 0000 0000 000000
2014-12-26 05:29:36,0.17,1.38,0.00,23.63,27.98,30.63,4.73,27.13,1009.18,2028.96,2929.84,2907.82,3155.55,349.74,344.22,7.16,0000 0000 0000 0000 000000
2014-12-26 05:34:38,0.15,1.38,0.00,23.63,28.00,30.63,4.75,27.31,1008.98,2028.97,2928.26,2906.56,3153.98,350.13,344.48,7.19,0000 0000 0000 0000 000000
2014-12-26 05:39:39,0.12,1.39,0.00,23.63,28.00,30.64,4.77,27.28,1008.88,2028.83,2926.53,2905.19,3152.55,350.62,344.77,7.22,0000 0000 0000 0000 000000
2014-12-26 05:44:40,0.18,1.39,0.00,23.62,28.00,30.67,4.75,27.31,1009.17,2028.66,2924.75,2903.74,3150.98,349.93,344.54,7.25,0000 0000 0000 0000 000000
2014-12-26 05:49:42,0.15,1.40,0.00,23.62,28.00,30.66,4.80,27.28,1009.29,2028.70,2923.22,2902.51,3149.61,350.60,344.90,7.28,0000 0000 0000 0000 000000
2014-12-26 05:54:43,0.11,1.40,0.00,23.62,28.02,30.64,4.66,27.00,1009.29,2028.59,2921.53,2901.23,3148.21,349.14,343.65,7.31,0000 0000 0000 0000 000000
2014-12-26 05:59:45,0.18,1.40,0.00,23.61,28.02,30.66,4.73,27.07,1009.29,2028.54,2919.94,2899.96,3146.80,349.71,344.25,7.34,0000 0000 0000 0000 000000
2014-12-26 06:04:46,0.10,1.41,0.00,23.59,28.02,30.69,4.70,27.10,1009.29,2028.32,2918.31,2898.66,3145.48,349.57,344.18,7.37,0000 0000 0000 0000 000000
2014-12-26 06:09:47,0.15,1.41,0.00,23.59,28.02,30.69,4.73,27.13,1009.29,2028.16,2916.68,2897.42,3144.11,349.95,344.46,7.39,0000 0000 0000 0000 000000
2014-12-26 06:14:48,0.17,1.42,0.00,23.59,28.04,30.70,4.75,27.18,1009.65,2028.26,2915.18,2896.23,3142.79,350.21,344.79,7.42,0000 0000 0000 0000 000000
2014-12-26 06:19:49,0.12,1.42,0.00,23.57,28.05,30.70,4.70,26.88,1009.78,2028.09,2913.59,2894.87,3141.29,349.67,344.27,7.45,0000 0000 0000 0000 000000
2014-12-26 06:24:51,0.15,1.42,0.00,23.56,28.05,30.69,4.73,26.95,1009.78,2028.13,2912.06,2893.64,3139.97,350.17,344.88,7.48,0000 0000 0000 0000 000000
2014-12-26 06:29:52,0.15,1.43,0.00,23.52,28.05,30.70,4.74,27.06,1009.78,2028.07,2910.34,2892.37,3138.54,349.87,344.58,7.51,0000 0000 0000 0000 000000
2014-12-26 06:34:53,0.15,1.43,0.00,23.52,28.06,30.73,4.78,26.92,1009.86,2028.02,2908.61,2891.01,3137.12,350.08,344.95,7.54,0000 0000 0000 0000 000000
2014-12-26 06:39:55,0.19,1.44,0.00,23.56,28.07,30.73,4.74,27.10,1010.07,2028.01,2906.81,2889.65,3135.68,350.15,344.85,7.57,0000 0000 0000 0000 000000
2014-12-26 06:44:55,0.13,1.44,0.00,23.55,28.07,30.74,4.72,27.04,1010.24,2028.00,2905.24,2888.46,3134.55,350.23,345.32,7.60,0000 0000 0000 0000 000000
2014-12-26 06:49:57,0.15,1.45,0.00,23.60,28.07,30.72,4.72,26.93,1010.27,2028.00,2903.68,2887.18,3133.16,350.36,345.06,7.63,0000 0000 0000 0000 000000
2014-12-26 06:54:58,0.17,1.45,0.00,23.59,28.09,30.73,4.75,26.92,1010.27,2028.00,2902.00,2885.87,3131.76,349.98,344.81,7.66,0000 0000 0000 0000 000000
2014-12-26 06:59:59,0.16,1.46,0.00,23.59,28.10,30.75,4.72,26.96,1010.27,2028.00,2900.37,2884.63,3130.43,349.60,344.45,7.69,0000 0000 0000 0000 000000
2014-12-26 07:05:00,0.18,1.46,0.00,23.61,28.10,30.75,4.75,27.06,1010.27,2027.99,2898.64,2883.20,3128.84,350.32,345.00,7.72,0000 0000 0000 0000 000000
2014-12-26 07:10:01,0.14,1.47,0.00,23.61,28.11,30.77,4.75,27.15,1010.27,2027.99,2896.99,2881.90,3127.57,349.75,344.58,7.75,0000 0000 0000 0000 000000
2014-12-26 07:15:03,0.15,1.47,0.00,23.59,28.12,30.80,4.71,27.23,1010.27,2027.99,2895.47,2880.71,3126.29,349.19,344.03,7.78,0000 0000 0000 0000 000000
2014-12-26 07:20:04,0.15,1.48,0.00,23.56,28.12,30.77,4.75,27.02,1010.28,2027.99,2893.84,2879.56,3124.90,350.22,345.01,7.80,0000 0000 0000 0000 000000
2014-12-26 07:25:05,0.15,1.48,0.00,23.59,28.12,30.80,4.76,27.26,1010.27,2027.99,2892.30,2878.40,3123.47,349.78,344.98,7.83,0000 0000 0000 0000 000000
2014-12-26 07:30:06,0.14,1.49,0.00,23.59,28.14,30.80,4.77,27.13,1010.30,2027.98,2890.72,2877.22,3122.15,349.88,344.84,7.86,0000 0000 0000 0000 000000
2014-12-26 07:35:07,0.17,1.49,0.00,23.58,28.15,30.84,4.72,27.18,1010.33,2027.98,2889.04,2875.85,3120.70,349.67,344.51,7.89,0000 0000 0000 0000 000000
2014-12-26 07:40:09,0.17,1.49,0.00,23.59,28.15,30.83,4.73,27.39,1010.27,2027.97,2887.27,2874.50,3119.34,350.00,344.88,7.92,0000 0000 0000 0000 000000
2014-12-26 07:45:10,0.14,1.50,0.00,23.52,28.15,30.83,4.77,27.09,1010.27,2027.95,2885.66,2873.32,3117.97,350.20,345.23,7.95,0000 0000 0000 0000 000000
2014-12-26 07:50:11,0.16,1.50,0.00,23.47,28.15,30.87,4.79,27.28,1010.27,2027.98,2884.07,2872.07,3116.63,350.07,345.12,7.98,0000 0000 0000 0000 000000
2014-12-26 07:55:13,0.16,1.51,0.00,23.47,28.15,30.88,4.83,27.37,1010.27,2027.97,2882.43,2870.79,3115.36,349.96,344.93,8.01,0000 0000 0000 0000 000000
2014-12-26 08:00:14,0.16,1.51,0.00,23.44,28.15,30.91,4.79,27.40,1010.25,2027.96,2880.80,2869.58,3113.94,350.21,345.16,8.04,0000 0000 0000 0000 000000
2014-12-26 08:05:15,0.15,1.52,0.00,23.41,28.15,30.96,4.74,27.38,1010.18,2027.97,2879.25,2868.35,3112.62,349.76,344.71,8.07,0000 0000 0000 0000 000000
2014-12-26 08:10:16,0.14,1.52,0.00,23.39,28.15,30.98,4.82,27.32,1010.19,2027.98,2877.72,2867.12,3111.41,350.12,344.99,8.10,0000 0000 0000 0000 000000
2014-12-26 08:15:17,0.15,1.53,0.00,23.37,28.15,31.01,4.79,27.13,1010.32,2027.98,2876.17,2865.86,3109.97,350.80,345.91,8.13,0000 0000 0000 0000 000000
2014-12-26 08:20:18,0.15,1.53,0.00,23.36,28.15,31.02,4.69,27.18,1010.60,2027.95,2874.68,2864.69,3108.71,350.08,345.29,8.16,0000 0000 0000 0000 000000
2014-12-26 08:25:20,0.15,1.54,0.00,23.32,28.15,31.03,4.71,27.29,1010.76,2027.95,2873.18,2863.52,3107.41,349.45,344.63,8.19,0000 0000 0000 0000 000000
2014-12-26 08:30:21,0.14,1.54,0.00,23.32,28.15,31.06,4.80,27.43,1010.76,2027.95,2871.66,2862.39,3106.13,350.38,345.70,8.21,0000 0000 0000 0000 000000
2014-12-26 08:35:22,0.16,1.55,0.00,23.33,28.15,31.07,4.83,27.40,1010.99,2027.97,2870.03,2861.08,3104.73,350.11,345.49,8.24,0000 0000 0000 0000 000000
2014-12-26 08:40:23,0.16,1.55,0.00,23.31,28.15,31.09,4.81,27.35,1011.23,2027.93,2868.44,2859.80,3103.39,350.36,345.76,8.27,0000 0000 0000 0000 000000
2014-12-26 08:45:25,0.14,1.55,0.00,23.29,28.15,31.10,4.82,27.19,1011.23,2027.94,2866.93,2858.71,3102.07,350.25,346.04,8.30,0000 0000 0000 0000 000000
2014-12-26 08:50:26,0.16,1.56,0.00,23.27,28.15,31.06,4.76,27.09,1011.25,2027.96,2865.46,2857.50,3100.74,350.27,345.84,8.33,0000 0000 0000 0000 000000
2014-12-26 08:55:28,0.14,1.56,0.00,23.28,28.15,31.08,4.76,27.37,1011.56,2027.94,2863.91,2856.24,3099.46,349.77,345.40,8.36,0000 0000 0000 0000 000000
2014-12-26 09:00:29,0.13,1.57,0.00,23.26,28.15,31.09,4.75,27.07,1011.74,2027.93,2862.47,2855.10,3098.15,349.35,345.08,8.39,0000 0000 0000 0000 000000
2014-12-26 09:05:30,0.16,1.57,0.00,23.26,28.14,31.11,4.80,27.30,1011.76,2027.94,2860.92,2853.92,3096.85,350.24,345.96,8.42,0000 0000 0000 0000 000000
2014-12-26 09:10:32,0.16,1.58,0.00,23.24,28.14,31.08,4.76,26.99,1011.74,2027.93,2859.46,2852.70,3095.53,349.82,345.68,8.45,0000 0000 0000 0000 000000
2014-12-26 09:15:33,0.13,1.58,0.00,23.21,28.13,31.06,4.83,27.20,1011.73,2027.90,2857.91,2851.55,3094.28,350.80,346.55,8.48,0000 0000 0000 0000 000000
2014-12-26 09:20:35,0.14,1.59,0.00,23.23,28.12,31.09,4.66,27.04,1011.74,2027.88,2856.46,2850.38,3092.97,349.15,344.68,8.51,0000 0000 0000 0000 000000
2014-12-26 09:25:36,0.16,1.59,0.00,23.21,28.12,31.07,4.74,27.01,1012.11,2027.88,2854.86,2849.24,3091.75,350.47,346.03,8.54,0000 0000 0000 0000 000000
2014-12-26 09:30:37,0.13,1.59,0.00,23.22,28.12,31.07,4.73,27.02,1012.22,2027.83,2853.39,2848.08,3090.50,349.89,345.89,8.57,0000 0000 0000 0000 000000
2014-12-26 09:35:38,0.13,1.60,0.00,23.17,28.12,31.08,4.77,27.05,1012.22,2027.72,2851.85,2846.81,3089.16,350.08,346.07,8.60,0000 0000 0000 0000 000000
2014-12-26 09:40:39,0.13,1.60,0.00,23.20,28.12,31.09,4.80,27.04,1012.23,2027.56,2850.35,2845.62,3087.84,350.25,346.16,8.62,0000 0000 0000 0000 000000
2014-12-26 09:45:40,0.16,1.61,0.00,23.21,28.11,31.02,4.76,27.16,1012.23,2027.69,2848.97,2844.56,3086.66,349.91,345.89,8.65,0000 0000 0000 0000 000000
2014-12-26 09:50:42,0.16,1.61,0.00,23.21,28.11,30.99,4.80,27.10,1012.23,2027.76,2847.56,2843.47,3085.47,349.75,345.65,8.68,0000 0000 0000 0000 000000
2014-12-26 09:55:43,0.14,1.62,0.00,23.24,28.10,30.97,4.71,26.94,1012.24,2027.83,2845.99,2842.35,3084.26,349.48,345.39,8.71,0000 0000 0000 0000 000000
2014-12-26 10:00:44,0.15,1.62,0.00,23.23,28.10,30.98,4.68,26.92,1012.42,2027.88,2844.53,2841.23,3083.05,349.80,345.68,8.74,0000 0000 0000 0000 000000
2014-12-26 10:05:45,0.14,1.63,0.00,23.25,28.10,30.97,4.82,26.87,1012.71,2027.91,2843.12,2840.09,3081.82,350.05,346.23,8.77,0000 0000 0000 0000 000000
2014-12-26 10:10:46,0.15,1.63,0.00,23.26,28.10,30.99,4.73,26.89,1012.71,2027.88,2841.64,2838.93,3080.61,349.49,345.12,8.80,0000 0000 0000 0000 000000
2014-12-26 10:15:47,0.14,1.63,0.00,23.27,28.10,30.98,4.81,26.92,1012.71,2027.82,2840.16,2837.71,3079.34,349.89,345.93,8.83,0000 0000 0000 0000 000000
2014-12-26 10:20:48,0.15,1.64,0.00,23.25,28.10,30.95,4.87,27.12,1012.70,2027.83,2838.73,2836.71,3078.11,350.46,346.46,8.86,0000 0000 0000 0000 000000
2014-12-26 10:25:50,0.13,1.64,0.00,23.29,28.10,30.94,4.84,27.13,1012.63,2027.79,2837.29,2835.53,3076.86,350.33,346.39,8.89,0000 0000 0000 0000 000000
2014-12-26 10:30:51,0.16,1.65,0.00,23.28,28.11,30.90,4.68,26.97,1012.35,2027.79,2835.79,2834.37,3075.65,350.01,345.96,8.92,0000 0000 0000 0000 000000
2014-12-26 10:35:52,0.13,1.65,0.00,23.28,28.12,30.91,4.81,27.18,1012.24,2027.84,2834.35,2833.28,3074.47,349.90,345.76,8.95,0000 0000 0000 0000 000000
2014-12-26 10:40:54,0.10,1.65,0.00,23.27,28.12,30.92,4.73,27.07,1012.33,2027.56,2832.71,2832.05,3073.17,350.09,346.16,8.98,0000 0000 0000 0000 000000
2014-12-26 10:45:55,0.18,1.66,0.00,23.28,28.12,30.91,4.74,27.08,1012.65,2027.72,2831.40,2830.95,3072.02,349.68,345.66,9.01,0000 0000 0000 0000 000000
2014-12-26 10:50:56,0.11,1.66,0.00,23.26,28.12,30.96,4.76,26.98,1012.71,2027.57,2829.86,2829.80,3070.84,350.07,346.14,9.03,0000 0000 0000 0000 000000
2014-12-26 10:55:57,0.13,1.67,0.00,23.29,28.12,30.96,4.85,27.09,1012.71,2027.38,2828.37,2828.63,3069.61,350.27,346.28,9.06,0000 0000 0000 0000 000000
2014-12-26 11:00:59,0.15,1.67,0.00,23.30,28.12,30.95,4.78,26.92,1012.71,2027.42,2826.87,2827.49,3068.42,349.54,345.57,9.09,0000 0000 0000 0000 000000
2014-12-26 11:06:01,0.15,1.67,0.00,23.28,28.12,30.95,4.78,27.13,1012.72,2027.49,2825.51,2826.42,3067.25,350.05,346.04,9.12,0000 0000 0000 0000 000000
2014-12-26 11:11:02,0.12,1.68,0.00,23.31,28.12,30.92,4.82,27.17,1012.68,2027.36,2823.94,2825.26,3065.97,350.54,346.30,9.15,0000 0000 0000 0000 000000
2014-12-26 11:16:03,0.14,1.68,0.00,23.30,28.12,30.90,4.79,27.27,1012.45,2027.35,2822.49,2824.10,3064.72,350.23,346.13,9.18,0000 0000 0000 0000 000000
2014-12-26 11:21:04,0.13,1.69,0.00,23.26,28.12,30.96,4.77,26.94,1012.73,2027.28,2821.06,2823.01,3063.48,350.16,346.15,9.21,0000 0000 0000 0000 000000
2014-12-26 11:26:05,0.14,1.69,0.00,23.30,28.12,30.97,4.81,27.05,1013.10,2027.27,2819.59,2821.81,3062.32,350.69,346.84,9.24,0000 0000 0000 0000 000000
2014-12-26 11:31:06,0.14,1.70,0.00,23.29,28.13,30.97,4.74,26.91,1013.20,2027.20,2818.14,2820.66,3061.01,350.25,346.34,9.27,0000 0000 0000 0000 000000
2014-12-26 11:36:08,0.16,1.70,0.00,23.29,28.13,30.95,4.83,27.00,1013.20,2027.23,2816.68,2819.61,3059.84,349.64,345.74,9.30,0000 0000 0000 0000 000000
2014-12-26 11:41:09,0.11,1.71,0.00,23.30,28.13,30.94,4.77,27.21,1013.20,2027.07,2815.22,2818.37,3058.50,350.15,346.18,9.33,0000 0000 0000 0000 000000
2014-12-26 11:46:11,0.13,1.71,0.00,23.31,28.14,30.95,4.74,26.93,1013.20,2027.06,2813.83,2817.28,3057.27,349.90,346.26,9.36,0000 0000 0000 0000 000000
2014-12-26 11:51:12,0.14,1.71,0.00,23.32,28.15,30.96,4.77,27.23,1013.20,2027.04,2812.31,2816.12,3056.07,350.52,346.74,9.39,0000 0000 0000 0000 000000
2014-12-26 11:56:13,0.16,1.72,0.00,23.28,28.15,30.95,4.70,26.93,1013.20,2027.03,2810.79,2815.00,3054.78,349.63,345.73,9.42,0000 0000 0000 0000 000000
2014-12-26 12:01:14,0.13,1.72,0.00,23.30,28.15,30.93,4.88,27.10,1013.20,2027.03,2809.39,2813.93,3053.59,350.16,346.28,9.44,0000 0000 0000 0000 000000
2014-12-26 12:06:15,0.14,1.73,0.00,23.31,28.15,30.94,4.83,27.15,1013.20,2027.02,2808.01,2812.87,3052.50,350.75,346.88,9.47,0000 0000 0000 0000 000000
2014-12-26 12:11:17,0.15,1.73,0.00,23.35,28.15,30.97,4.65,27.18,1013.22,2027.04,2806.53,2811.74,3051.26,349.42,345.64,9.50,0000 0000 0000 0000 000000
2014-12-26 12:16:18,0.15,1.73,0.00,23.34,28.15,30.97,4.68,27.02,1013.21,2027.04,2804.95,2810.57,3050.04,349.58,345.80,9.53,0000 0000 0000 0000 000000
2014-12-26 12:21:19,0.14,1.74,0.00,23.32,28.15,31.01,4.78,27.07,1013.21,2027.03,2803.51,2809.49,3048.93,350.09,346.29,9.56,0000 0000 0000 0000 000000
2014-12-26 12:26:21,0.16,1.74,0.00,23.31,28.15,31.01,4.77,27.16,1013.20,2027.03,2802.00,2808.35,3047.57,350.04,346.18,9.59,0000 0000 0000 0000 000000
2014-12-26 12:31:22,0.14,1.75,0.00,23.29,28.15,30.97,4.85,27.02,1013.20,2027.02,2800.40,2807.09,3046.23,350.50,346.68,9.62,0000 0000 0000 0000 000000
2014-12-26 12:36:23,0.16,1.75,0.00,23.33,28.16,30.98,4.79,27.12,1013.27,2027.02,2798.96,2805.89,3044.94,349.89,345.93,9.65,0000 0000 0000 0000 000000
2014-12-26 12:41:25,0.16,1.76,0.00,23.32,28.17,30.99,4.77,27.19,1013.57,2027.00,2797.48,2804.73,3043.63,350.18,346.41,9.68,0000 0000 0000 0000 000000
2014-12-26 12:46:26,0.12,1.76,0.00,23.30,28.17,30.99,4.78,26.98,1013.68,2027.01,2796.21,2803.73,3042.59,349.91,346.38,9.71,0000 0000 0000 0000 000000
2014-12-26 12:51:27,0.15,1.77,0.00,23.27,28.17,31.06,4.74,27.04,1013.69,2027.00,2794.69,2802.57,3041.41,350.07,346.43,9.74,0000 0000 0000 0000 000000
2014-12-26 12:56:29,0.13,1.77,0.00,23.31,28.17,31.07,4.81,26.93,1013.68,2027.00,2793.33,2801.45,3040.24,350.34,346.55,9.77,0000 0000 0000 0000 000000
2014-12-26 13:01:30,0.15,1.77,0.00,23.28,28.17,31.00,4.81,27.03,1013.43,2027.00,2791.79,2800.33,3038.91,349.90,346.19,9.80,0000 0000 0000 0000 000000
2014-12-26 13:06:31,0.14,1.78,0.00,23.30,28.17,31.01,4.61,26.94,1013.31,2027.00,2790.39,2799.27,3037.67,349.41,346.07,9.83,0000 0000 0000 0000 000000